Regional Weather Roundup
Issued by NWS Charleston, SC

Current Version | Previous Version | Graphics & Text | Print | Product List | Glossary On
Versions: 1 2 3 4 5 6 7 8 9 10 11 12 13 14 15 16 17 18 19 20 21 22 23 24 25 26 27 28 29 30 31 32 33 34 35 36 37 38 39 40 41 42 43 44 45 46 47 48 49 50
220
ASUS42 KCHS 080212
RWRCHS

REGIONAL WEATHER ROUNDUP
NATIONAL WEATHER SERVICE CHARLESTON SC
900 PM EST SUN FEB 07 2016

NOTE: "FAIR" INDICATES FEW OR NO CLOUDS BELOW 12,000 FEET WITH NO
SIGNIFICANT WEATHER AND/OR OBSTRUCTIONS TO VISIBILITY.

NOT ALL STATIONS ARE QUALITY CONTROLLED BY THE NATIONAL
WEATHER SERVICE. USE DATA WITH CAUTION...ESPECIALLY
DEWPOINT OBSERVATIONS.

NOTICE: OBSERVATIONS FOR THE SAVANNAH-HILTON HEAD INTERNATIONAL AIRPORT
/KSAV/ HAVE BEEN TEMPORARILY REMOVED DUE TO AN ERRONEOUS TEMPERATURE
SENSOR. THE OBSERVATION WILL BE REINTRODUCED ONCE REPAIRS ARE COMPLETE.

SCZ027-030-031-034>040-042>050-080300-
...SOUTHEAST SOUTH CAROLINA...

CITY           SKY/WX    TMP DP  RH WIND       PRES   REMARKS
N CHARLESTON   CLOUDY    44  27  51 NW9       29.92R
WATERFRONT PRK   N/A     45  31  58 W5        29.75S
MOUNT PLEASANT FAIR      43  32  65 NW7       29.90S
JOHNS ISLAND   FAIR      41  30  65 W8        29.92R
PINOPOLIS        N/A     48  34  57 NW12      29.84R
MONCKS CORNER  FAIR      39  25  56 NW5       29.91R WCI  36
SUMMERVILLE    FAIR      43  30  61 NW5       29.94R
BEAUFORT MCAS  CLEAR     40  32  73 W3        29.96R
BEAUFORT ARPT  FAIR      41  34  75 W6        29.95R
HILTON HEAD IS CLEAR     39  36  87 CALM      29.97R
WALTERBORO     CLEAR     36  34  93 CALM      29.95R
ALLENDALE      FAIR      39  34  81 CALM      29.95S

...SOUTHERN MIDLANDS AND PEE DEE...

CITY           SKY/WX    TMP DP  RH WIND       PRES   REMARKS
GEORGETOWN     NOT AVBL
KINGSTREE      NOT AVBL
ORANGEBURG     CLEAR     39  31  72 NW3       29.94S
BARNWELL       FAIR      39  34  81 CALM      29.96S
AIKEN          FAIR      37  28  70 CALM      29.98R
MANNING        FAIR      41  27  56 NW6       29.92S
COLUMBIA       CLEAR     38  29  70 W5        29.94S WCI  34
SUMTER         CLOUDY    42  25  51 NW7       29.91S
FLORENCE       CLOUDY    43  26  51 NW9       29.90R
MYRTLE BEACH   MOCLDY    43  27  52 NW14G20   29.85
N MYRTLE BEACH CLOUDY    42  29  59 NW9G16    29.81R

$$

GAZ063-065-086>088-099>101-113>116-118-119-134>141-150-080300-
...SOUTHEAST GEORGIA...

CITY           SKY/WX    TMP DP  RH WIND       PRES   REMARKS
SAVANNAH ARPT  CLEAR     39  32  76 W5        29.97R WCI  36
HUNTER AAF     CLEAR     40  33  76 W5        29.94R WCI  36
FORT STEWART   CLEAR     39  32  75 W3        29.96R
STATESBORO     CLEAR     41  33  72 CALM      29.97R
SYLVANIA       CLEAR     41  38  90 CALM      29.97R
CLAXTON        FAIR      40  39  95 CALM      29.98R

...CSRA...CENTRAL AND FAR SOUTHEAST GEORGIA...

CITY           SKY/WX    TMP DP  RH WIND       PRES   REMARKS
THOMSON        CLEAR     40  34  77 CALM      29.99F
AUGUSTA-BUSH   CLEAR     44  28  53 W8        29.95R
AUGUSTA-DANIEL CLEAR     50  24  36 W5        29.95S
SWAINSBORO     FAIR      37  32  81 CALM      29.98S
VIDALIA        CLEAR     45  30  57 W3        29.99R
EASTMAN        FAIR      41  32  70 CALM      30.02S
HAZLEHURST     FAIR      46  30  54 CALM      29.99R
ALMA           CLEAR     46  28  49 CALM      30.01R
WAYCROSS       CLEAR     48  33  56 W7        30.02R
JESUP          FAIR      41  36  81 CALM      30.00R
BAXLEY         FAIR      46  32  57 CALM      30.00R
BRUNSWICK      CLEAR     41  36  81 W3        30.00R
SAINT SIMONS   CLEAR     46  34  62 W6        29.99R

$$

SCZ027-028-034-036>038-045-046-048>050-GAZ119-141-080300-
...LAKE AND SUPPLEMENTAL COASTAL OBSERVATIONS...

STATION/POSITION TIME  TEMP    WIND        PRES    WAVE   SWELL
                       AIR SEA DIR/SP/G            HT/PER HT/PER/DIR
                 (UTC) (F)     (DEG/KT/KT) (MB)    (FT/S) (FT/S/D)
WINYAH BAY       NOT AVBL
LAKE MURRAY      0100   45        CALM     1013.5R
ACE BASIN NERRS  NOT AVBL
FORT PULASKI     0100   49 53              1014.4R
SAPELO ISLAND    0100   49     300/  5     1014.0S

$$

ANZ835-935-AMZ111-154-330-350-352-354-370-450-454-472-080300-
...C-MAN AND BUOY OBSERVATIONS...

STATION/POSITION TIME  TEMP    WIND        PRES    WAVE   SWELL
                       AIR SEA DIR/SP/G            HT/PER HT/PER/DIR
                 (UTC) (F)     (DEG/KT/KT) (MB)    (FT/S) (FT/S/D)
BUOY 41004       0150   52 66  310/ 31/ 39 1009.8R  11/ 6   3/16
BUOY 41008       0150   54 56  300/ 14/ 17 1014.5R   4/11   3/ 90/11
FOLLY BEACH CMAN 0100   45     290/  6/ 10 1013.0R
CAPERS NEARSHORE 0108   47     300/ 17/ 23 1012.1S
FRIPP NEARSHORE  0100   49     320/ 10/ 12 1013.2R


STATION/POSITION TIME  TEMP    WIND        PRES    WAVE   SWELL
                       AIR SEA DIR/SP/G            HT/PER HT/PER/DIR
                 (UTC) (F)     (DEG/KT/KT) (MB)    (FT/S) (FT/S/D)
5E ST. MARYS GA  0121      56                N/A     4/13   2/ 90/13
FRYING PAN BUOY  0100   46 66  330/ 35/ 47 1004.6R
BUOY 41025       0150   52 71  360/ 45/ 54  991.8F  19/13   8/ 80/13
CAPE LOOKOUT NC  NOT AVBL
BUOY 41002       0150   56 69  280/ 47/ 60   N/A    25/ 9
BUOY 41010       0120   63 74              1012.3R
ST AUGUSTINE FL  0200   46 57  250/  5/  6 1017.6R


$$




USA.gov is the U.S. government's official web portal to all federal, state and local government web resources and services.